QPF
0.00 0.00 0.00 0.00 0.00 0.00 0.00 0.00 0.00 0.00 0.00 0.00 0.00 0.01 0.01 0.01 0.00 0.00 0.00 0.00 0.00 0.00 0.00 0.01 0.01 0.00 0.01 0.01 0.01 0.01 0.01 0.00 0.01 0.01 0.01 0.02 0.02 0.03 0.02 0.02 0.03 0.06 0.10 0.09
0.00 0.00 0.00 0.00 0.00 0.00 0.00 0.00 0.01 0.00 0.00 0.00 0.01 0.01 0.01 0.01 0.00 0.00 0.00 0.01 0.01 0.00 0.00 0.01 0.01 0.00 0.01 0.01 0.01 0.01 0.01 0.01 0.01 0.01 0.01 0.02 0.02 0.03 0.03 0.02 0.04 0.08 0.11 0.10
0.00 0.00 0.00 0.00 0.00 0.00 0.01 0.00 0.00 0.00 0.00 0.00 0.00 0.01 0.01 0.01 0.00 0.00 0.00 0.00 0.01 0.00 0.00 0.00 0.00 0.00 0.00 0.00 0.00 0.00 0.00 0.01 0.02 0.02 0.02 0.03 0.04 0.05 0.05 0.05 0.05 0.07 0.07 0.06
0.00 0.00 0.00 0.00 0.00 0.01 0.01 0.01 0.01 0.01 0.01 0.01 0.00 0.01 0.01 0.01 0.00 0.00 0.00 0.00 0.00 0.00 0.00 0.00 0.00 0.00 0.00 0.00 0.00 0.00 0.00 0.01 0.02 0.02 0.04 0.06 0.06 0.06 0.06 0.05 0.05 0.07 0.06 0.04
0.00 0.00 0.00 0.00 0.00 0.01 0.01 0.01 0.01 0.01 0.00 0.01 0.00 0.01 0.01 0.01 0.00 0.00 0.00 0.00 0.00 0.00 0.00 0.00 0.00 0.00 0.00 0.00 0.00 0.00 0.00 0.01 0.02 0.04 0.05 0.05 0.04 0.04 0.03 0.03 0.03 0.03 0.03 0.02
0.00 0.00 0.00 0.00 0.00 0.01 0.01 0.01 0.01 0.01 0.01 0.01 0.01 0.01 0.01 0.00 0.00 0.01 0.00 0.00 0.00 0.00 0.00 0.00 0.00 0.00 0.00 0.00 0.00 0.00 0.01 0.01 0.03 0.04 0.04 0.03 0.02 0.02 0.02 0.02 0.02 0.02 0.01 0.02
0.00 0.00 0.00 0.00 0.00 0.01 0.01 0.02 0.02 0.02 0.02 0.01 0.01 0.01 0.01 0.00 0.00 0.00 0.00 0.00 0.00 0.00 0.00 0.00 0.00 0.00 0.00 0.00 0.00 0.00 0.01 0.01 0.02 0.02 0.01 0.01 0.02 0.02 0.03 0.02 0.02 0.02 0.02 0.02
0.00 0.01 0.00 0.00 0.00 0.01 0.01 0.01 0.01 0.01 0.01 0.01 0.01 0.01 0.01 0.00 0.00 0.00 0.00 0.00 0.01 0.01 0.01 0.01 0.00 0.00 0.00 0.00 0.01 0.01 0.01 0.01 0.01 0.02 0.04 0.04 0.03 0.02 0.03 0.03 0.03 0.03 0.03 0.04
0.00 0.00 0.00 0.00 0.00 0.00 0.01 0.01 0.01 0.01 0.01 0.01 0.01 0.00 0.00 0.00 0.00 0.00 0.00 0.01 0.01 0.01 0.01 0.01 0.00 0.01 0.01 0.01 0.01 0.02 0.02 0.02 0.01 0.02 0.03 0.03 0.02 0.01 0.01 0.02 0.02 0.02 0.02 0.03
0.00 0.00 0.00 0.00 0.00 0.00 0.01 0.01 0.01 0.01 0.01 0.01 0.01 0.00 0.00 0.00 0.00 0.00 0.00 0.01 0.01 0.01 0.01 0.01 0.00 0.00 0.00 0.01 0.01 0.01 0.01 0.02 0.02 0.01 0.02 0.03 0.02 0.02 0.01 0.01 0.01 0.02 0.02 0.03
0.00 0.00 0.00 0.00 0.00 0.00 0.00 0.01 0.01 0.01 0.00 0.01 0.00 0.00 0.00 0.00 0.01 0.00 0.00 0.01 0.01 0.01 0.01 0.00 0.00 0.00 0.00 0.01 0.01 0.01 0.01 0.01 0.01 0.01 0.02 0.02 0.02 0.01 0.02 0.01 0.02 0.02 0.02 0.03
0.00 0.00 0.00 0.00 0.00 0.00 0.00 0.00 0.00 0.00 0.00 0.00 0.00 0.00 0.00 0.01 0.01 0.01 0.00 0.00 0.01 0.01 0.01 0.01 0.01 0.01 0.01 0.01 0.01 0.01 0.01 0.01 0.01 0.01 0.01 0.01 0.01 0.01 0.02 0.01 0.02 0.02 0.02 0.02
0.00 0.00 0.00 0.00 0.00 0.00 0.00 0.00 0.00 0.00 0.00 0.00 0.00 0.00 0.01 0.01 0.00 0.00 0.00 0.00 0.00 0.00 0.00 0.00 0.00 0.01 0.00 0.00 0.00 0.01 0.01 0.01 0.01 0.01 0.02 0.02 0.02 0.02 0.02 0.02 0.02 0.02 0.02 0.02
0.00 0.00 0.00 0.00 0.00 0.00 0.00 0.00 0.00 0.00 0.00 0.00 0.00 0.00 0.01 0.00 0.00 0.00 0.00 0.00 0.00 0.00 0.00 0.00 0.00 0.00 0.00 0.00 0.00 0.00 0.01 0.01 0.01 0.01 0.02 0.04 0.04 0.03 0.04 0.03 0.03 0.02 0.01 0.01
0.00 0.00 0.00 0.00 0.00 0.00 0.00 0.00 0.00 0.00 0.00 0.00 0.00 0.00 0.00 0.00 0.00 0.01 0.01 0.01 0.01 0.01 0.00 0.00 0.01 0.01 0.00 0.01 0.01 0.01 0.01 0.01 0.01 0.01 0.01 0.01 0.02 0.02 0.03 0.02 0.02 0.02 0.01 0.01
0.00 0.00 0.00 0.00 0.00 0.00 0.00 0.00 0.00 0.00 0.00 0.00 0.00 0.00 0.00 0.00 0.01 0.01 0.01 0.01 0.01 0.00 0.00 0.00 0.01 0.01 0.00 0.01 0.01 0.01 0.01 0.00 0.00 0.01 0.01 0.01 0.01 0.01 0.01 0.01 0.01 0.01 0.01 0.01
0.00 0.00 0.00 0.00 0.00 0.00 0.00 0.00 0.00 0.00 0.00 0.00 0.00 0.00 0.00 0.00 0.00 0.00 0.00 0.01 0.01 0.00 0.00 0.00 0.00 0.00 0.01 0.01 0.01 0.01 0.02 0.01 0.00 0.01 0.02 0.02 0.01 0.01 0.01 0.02 0.02 0.02 0.02 0.02
0.00 0.00 0.00 0.00 0.00 0.00 0.00 0.00 0.00 0.00 0.00 0.00 0.00 0.00 0.00 0.00 0.00 0.00 0.00 0.00 0.00 0.01 0.01 0.01 0.01 0.01 0.01 0.01 0.01 0.01 0.02 0.02 0.01 0.01 0.02 0.02 0.02 0.01 0.01 0.02 0.01 0.01 0.01 0.01
0.00 0.00 0.00 0.00 0.00 0.00 0.00 0.00 0.00 0.00 0.00 0.00 0.00 0.00 0.00 0.00 0.01 0.00 0.01 0.01 0.00 0.01 0.01 0.01 0.01 0.01 0.01 0.01 0.01 0.01 0.01 0.02 0.02 0.02 0.03 0.02 0.02 0.02 0.02 0.02 0.01 0.01 0.01 0.01
0.00 0.00 0.00 0.00 0.00 0.00 0.00 0.00 0.00 0.00 0.00 0.00 0.00 0.00 0.00 0.00 0.01 0.01 0.01 0.01 0.01 0.00 0.01 0.01 0.01 0.01 0.01 0.01 0.01 0.01 0.01 0.01 0.02 0.02 0.02 0.02 0.02 0.02 0.02 0.01 0.01 0.01 0.01 0.01
0.00 0.00 0.00 0.00 0.00 0.00 0.00 0.00 0.00 0.00 0.00 0.00 0.00 0.00 0.00 0.00 0.01 0.00 0.01 0.01 0.00 0.01 0.01 0.02 0.02 0.01 0.02 0.02 0.02 0.03 0.02 0.02 0.01 0.02 0.02 0.02 0.02 0.02 0.02 0.02 0.02 0.01 0.01 0.01
0.00 0.00 0.00 0.00 0.00 0.00 0.00 0.00 0.00 0.00 0.00 0.00 0.00 0.00 0.01 0.00 0.00 0.01 0.01 0.01 0.01 0.01 0.02 0.02 0.02 0.02 0.02 0.02 0.03 0.04 0.05 0.04 0.02 0.01 0.01 0.01 0.02 0.02 0.01 0.02 0.02 0.02 0.02 0.02
0.00 0.00 0.00 0.00 0.00 0.00 0.01 0.01 0.01 0.01 0.01 0.00 0.00 0.00 0.01 0.01 0.01 0.01 0.01 0.01 0.01 0.01 0.02 0.03 0.03 0.02 0.02 0.02 0.02 0.03 0.05 0.05 0.04 0.04 0.04 0.03 0.02 0.01 0.01 0.01 0.03 0.03 0.03 0.03
0.01 0.01 0.01 0.01 0.01 0.01 0.01 0.01 0.01 0.01 0.01 0.01 0.01 0.01 0.01 0.01 0.01 0.01 0.01 0.01 0.01 0.01 0.02 0.02 0.02 0.03 0.02 0.02 0.02 0.03 0.04 0.03 0.03 0.04 0.05 0.04 0.03 0.02 0.02 0.02 0.03 0.03 0.03 0.02
0.01 0.01 0.01 0.01 0.01 0.01 0.01 0.01 0.01 0.01 0.02 0.02 0.02 0.01 0.01 0.01 0.01 0.00 0.00 0.01 0.01 0.01 0.01 0.02 0.03 0.03 0.03 0.04 0.04 0.04 0.04 0.03 0.01 0.01 0.01 0.02 0.02 0.02 0.02 0.02 0.02 0.02 0.01 0.01
0.01 0.01 0.01 0.02 0.01 0.01 0.01 0.01 0.01 0.02 0.02 0.02 0.01 0.01 0.01 0.01 0.01 0.01 0.01 0.01 0.01 0.01 0.01 0.02 0.03 0.03 0.03 0.03 0.05 0.05 0.04 0.03 0.02 0.01 0.01 0.01 0.02 0.02 0.02 0.02 0.02 0.02 0.02 0.02
MSLP
1008.81 1009.39 1009.83 1010.14 1010.32 1010.41 1010.45 1010.48 1010.51 1010.57 1010.63 1010.67 1010.69 1010.65 1010.57 1010.44 1010.29 1010.16 1010.07 1010.05 1010.11 1010.25 1010.48 1010.76 1011.08 1011.42 1011.76 1012.09 1012.40 1012.69 1012.95 1013.18 1013.39 1013.58 1013.73 1013.85 1013.95 1014.00 1014.03 1014.02 1013.99 1013.93 1013.85 1013.77
1009.41 1009.89 1010.23 1010.43 1010.52 1010.55 1010.57 1010.60 1010.68 1010.78 1010.90 1011.00 1011.05 1011.03 1010.93 1010.77 1010.58 1010.39 1010.25 1010.18 1010.20 1010.31 1010.50 1010.76 1011.06 1011.38 1011.70 1012.01 1012.31 1012.60 1012.88 1013.16 1013.42 1013.67 1013.89 1014.08 1014.22 1014.30 1014.33 1014.31 1014.24 1014.14 1014.02 1013.88
1009.90 1010.27 1010.50 1010.60 1010.62 1010.60 1010.62 1010.68 1010.82 1011.00 1011.19 1011.36 1011.46 1011.47 1011.38 1011.21 1010.99 1010.77 1010.60 1010.50 1010.49 1010.59 1010.77 1011.01 1011.28 1011.57 1011.86 1012.14 1012.41 1012.68 1012.96 1013.25 1013.54 1013.83 1014.10 1014.34 1014.52 1014.63 1014.68 1014.65 1014.57 1014.44 1014.29 1014.13
1010.26 1010.52 1010.64 1010.66 1010.63 1010.61 1010.65 1010.78 1010.99 1011.27 1011.55 1011.80 1011.95 1012.00 1011.92 1011.75 1011.52 1011.28 1011.09 1010.99 1010.98 1011.08 1011.26 1011.50 1011.76 1012.03 1012.28 1012.51 1012.74 1012.97 1013.22 1013.49 1013.78 1014.09 1014.39 1014.66 1014.88 1015.02 1015.08 1015.07 1014.98 1014.86 1014.70 1014.54
1010.51 1010.67 1010.71 1010.67 1010.62 1010.63 1010.72 1010.93 1011.25 1011.62 1011.99 1012.31 1012.52 1012.59 1012.52 1012.34 1012.10 1011.86 1011.67 1011.58 1011.59 1011.71 1011.91 1012.17 1012.44 1012.69 1012.91 1013.10 1013.28 1013.45 1013.65 1013.88 1014.15 1014.45 1014.75 1015.04 1015.28 1015.46 1015.55 1015.56 1015.50 1015.39 1015.25 1015.11
1010.70 1010.78 1010.76 1010.70 1010.66 1010.71 1010.88 1011.18 1011.59 1012.05 1012.50 1012.87 1013.11 1013.19 1013.12 1012.93 1012.68 1012.44 1012.26 1012.19 1012.24 1012.40 1012.65 1012.94 1013.23 1013.49 1013.69 1013.85 1013.97 1014.08 1014.21 1014.38 1014.60 1014.87 1015.16 1015.45 1015.71 1015.91 1016.04 1016.08 1016.06 1015.98 1015.88 1015.77
1010.88 1010.91 1010.86 1010.80 1010.80 1010.90 1011.15 1011.53 1012.01 1012.54 1013.04 1013.43 1013.67 1013.74 1013.65 1013.44 1013.18 1012.94 1012.78 1012.74 1012.84 1013.07 1013.37 1013.72 1014.05 1014.33 1014.53 1014.65 1014.72 1014.77 1014.83 1014.93 1015.09 1015.31 1015.57 1015.85 1016.12 1016.34 1016.51 1016.60 1016.62 1016.59 1016.54 1016.47
1011.13 1011.12 1011.07 1011.03 1011.07 1011.22 1011.52 1011.96 1012.49 1013.04 1013.54 1013.92 1014.14 1014.17 1014.05 1013.81 1013.54 1013.31 1013.18 1013.19 1013.35 1013.64 1014.02 1014.44 1014.82 1015.12 1015.33 1015.44 1015.47 1015.45 1015.44 1015.47 1015.55 1015.71 1015.94 1016.20 1016.47 1016.71 1016.91 1017.05 1017.13 1017.15 1017.14 1017.12
1011.46 1011.45 1011.41 1011.41 1011.48 1011.67 1012.00 1012.45 1012.98 1013.51 1013.97 1014.30 1014.46 1014.45 1014.28 1014.03 1013.75 1013.53 1013.44 1013.51 1013.73 1014.10 1014.56 1015.04 1015.47 1015.81 1016.03 1016.13 1016.13 1016.07 1015.99 1015.94 1015.96 1016.06 1016.23 1016.47 1016.73 1016.99 1017.23 1017.41 1017.54 1017.61 1017.65 1017.67
1011.87 1011.89 1011.89 1011.92 1012.02 1012.22 1012.55 1012.97 1013.44 1013.91 1014.29 1014.54 1014.63 1014.56 1014.36 1014.09 1013.83 1013.64 1013.59 1013.72 1014.01 1014.45 1014.97 1015.50 1015.98 1016.36 1016.60 1016.69 1016.67 1016.57 1016.44 1016.34 1016.29 1016.34 1016.47 1016.67 1016.93 1017.20 1017.45 1017.67 1017.85 1017.97 1018.06 1018.11
1012.34 1012.41 1012.46 1012.52 1012.63 1012.83 1013.11 1013.47 1013.85 1014.21 1014.50 1014.66 1014.67 1014.55 1014.32 1014.06 1013.82 1013.67 1013.68 1013.86 1014.20 1014.69 1015.25 1015.83 1016.34 1016.73 1016.98 1017.09 1017.06 1016.94 1016.78 1016.64 1016.56 1016.56 1016.66 1016.84 1017.08 1017.35 1017.63 1017.88 1018.10 1018.27 1018.40 1018.50
1012.79 1012.95 1013.05 1013.15 1013.27 1013.44 1013.66 1013.92 1014.19 1014.43 1014.60 1014.67 1014.62 1014.46 1014.23 1013.98 1013.78 1013.69 1013.74 1013.96 1014.35 1014.85 1015.43 1016.01 1016.53 1016.93 1017.19 1017.30 1017.28 1017.17 1017.02 1016.87 1016.78 1016.76 1016.84 1017.00 1017.24 1017.51 1017.81 1018.09 1018.34 1018.56 1018.74 1018.88
1013.19 1013.43 1013.60 1013.74 1013.86 1013.99 1014.14 1014.30 1014.46 1014.58 1014.64 1014.62 1014.52 1014.34 1014.13 1013.92 1013.77 1013.72 1013.82 1014.06 1014.45 1014.94 1015.50 1016.05 1016.54 1016.93 1017.19 1017.32 1017.33 1017.25 1017.13 1017.02 1016.95 1016.95 1017.03 1017.20 1017.44 1017.72 1018.03 1018.34 1018.63 1018.90 1019.12 1019.31
1013.50 1013.82 1014.05 1014.22 1014.34 1014.44 1014.52 1014.59 1014.63 1014.65 1014.62 1014.54 1014.41 1014.24 1014.05 1013.89 1013.79 1013.79 1013.90 1014.14 1014.50 1014.94 1015.43 1015.92 1016.37 1016.73 1016.98 1017.14 1017.19 1017.18 1017.13 1017.09 1017.08 1017.13 1017.25 1017.44 1017.70 1018.00 1018.33 1018.66 1018.99 1019.30 1019.57 1019.81
1013.69 1014.08 1014.38 1014.58 1014.70 1014.76 1014.78 1014.77 1014.73 1014.66 1014.57 1014.44 1014.30 1014.15 1014.00 1013.89 1013.84 1013.86 1013.98 1014.18 1014.48 1014.84 1015.23 1015.63 1016.00 1016.32 1016.57 1016.75 1016.87 1016.95 1017.00 1017.06 1017.15 1017.29 1017.47 1017.71 1018.01 1018.34 1018.69 1019.05 1019.41 1019.76 1020.08 1020.37
1013.79 1014.23 1014.56 1014.78 1014.91 1014.95 1014.92 1014.84 1014.73 1014.60 1014.47 1014.33 1014.19 1014.07 1013.97 1013.91 1013.89 1013.92 1014.01 1014.17 1014.37 1014.62 1014.90 1015.18 1015.47 1015.74 1015.98 1016.19 1016.39 1016.57 1016.75 1016.95 1017.16 1017.41 1017.68 1018.00 1018.34 1018.70 1019.08 1019.47 1019.86 1020.23 1020.59 1020.91
1013.83 1014.29 1014.63 1014.86 1014.97 1014.98 1014.92 1014.79 1014.64 1014.47 1014.31 1014.17 1014.06 1013.97 1013.92 1013.90 1013.90 1013.93 1013.99 1014.07 1014.17 1014.30 1014.45 1014.62 1014.81 1015.02 1015.25 1015.51 1015.78 1016.08 1016.40 1016.74 1017.10 1017.47 1017.85 1018.25 1018.65 1019.06 1019.46 1019.87 1020.28 1020.67 1021.05 1021.39
1013.82 1014.27 1014.60 1014.81 1014.90 1014.89 1014.79 1014.63 1014.44 1014.26 1014.09 1013.96 1013.87 1013.83 1013.82 1013.83 1013.85 1013.87 1013.89 1013.90 1013.91 1013.91 1013.94 1014.00 1014.10 1014.26 1014.48 1014.77 1015.12 1015.53 1015.98 1016.46 1016.96 1017.46 1017.95 1018.43 1018.90 1019.35 1019.78 1020.21 1020.62 1021.02 1021.40 1021.75
1013.79 1014.19 1014.49 1014.66 1014.72 1014.67 1014.54 1014.35 1014.14 1013.95 1013.79 1013.68 1013.62 1013.62 1013.64 1013.69 1013.73 1013.75 1013.74 1013.69 1013.61 1013.53 1013.45 1013.42 1013.44 1013.56 1013.77 1014.09 1014.50 1015.00 1015.56 1016.17 1016.79 1017.40 1017.99 1018.54 1019.07 1019.55 1020.01 1020.45 1020.86 1021.25 1021.62 1021.97
1013.73 1014.06 1014.29 1014.42 1014.43 1014.34 1014.18 1013.97 1013.75 1013.55 1013.40 1013.32 1013.30 1013.33 1013.40 1013.48 1013.55 1013.57 1013.54 1013.47 1013.34 1013.19 1013.05 1012.95 1012.92 1013.00 1013.21 1013.54 1014.00 1014.56 1015.21 1015.90 1016.61 1017.30 1017.97 1018.59 1019.16 1019.68 1020.15 1020.59 1021.00 1021.39 1021.74 1022.07
1013.59 1013.85 1014.01 1014.07 1014.03 1013.91 1013.72 1013.49 1013.27 1013.08 1012.95 1012.90 1012.91 1012.99 1013.10 1013.22 1013.32 1013.37 1013.35 1013.27 1013.13 1012.95 1012.78 1012.65 1012.60 1012.66 1012.86 1013.19 1013.67 1014.27 1014.96 1015.70 1016.46 1017.21 1017.93 1018.59 1019.19 1019.73 1020.22 1020.67 1021.07 1021.45 1021.79 1022.10
1013.35 1013.53 1013.62 1013.63 1013.54 1013.39 1013.18 1012.95 1012.74 1012.57 1012.47 1012.44 1012.49 1012.61 1012.76 1012.93 1013.06 1013.15 1013.17 1013.11 1012.99 1012.83 1012.66 1012.54 1012.48 1012.54 1012.74 1013.07 1013.55 1014.15 1014.85 1015.60 1016.38 1017.15 1017.88 1018.56 1019.18 1019.74 1020.24 1020.69 1021.10 1021.48 1021.82 1022.13
1012.98 1013.09 1013.13 1013.09 1012.97 1012.80 1012.60 1012.38 1012.19 1012.05 1011.98 1011.99 1012.07 1012.23 1012.42 1012.62 1012.81 1012.94 1013.00 1013.00 1012.92 1012.81 1012.68 1012.59 1012.56 1012.63 1012.83 1013.16 1013.62 1014.21 1014.88 1015.62 1016.38 1017.13 1017.86 1018.53 1019.15 1019.72 1020.22 1020.69 1021.11 1021.49 1021.84 1022.16
1012.48 1012.54 1012.54 1012.47 1012.35 1012.18 1012.00 1011.82 1011.66 1011.56 1011.53 1011.58 1011.70 1011.88 1012.10 1012.34 1012.56 1012.74 1012.85 1012.90 1012.90 1012.85 1012.78 1012.74 1012.76 1012.86 1013.07 1013.40 1013.85 1014.40 1015.04 1015.73 1016.45 1017.16 1017.86 1018.51 1019.12 1019.67 1020.18 1020.66 1021.09 1021.49 1021.86 1022.20
1011.87 1011.90 1011.87 1011.81 1011.71 1011.58 1011.43 1011.30 1011.20 1011.15 1011.16 1011.24 1011.38 1011.58 1011.82 1012.08 1012.32 1012.53 1012.69 1012.80 1012.86 1012.89 1012.90 1012.93 1013.00 1013.15 1013.39 1013.72 1014.15 1014.68 1015.27 1015.91 1016.57 1017.23 1017.88 1018.49 1019.07 1019.61 1020.11 1020.59 1021.03 1021.45 1021.84 1022.20
1011.19 1011.21 1011.19 1011.15 1011.08 1011.01 1010.94 1010.87 1010.83 1010.83 1010.89 1010.99 1011.15 1011.35 1011.59 1011.84 1012.09 1012.31 1012.50 1012.66 1012.78 1012.88 1012.97 1013.08 1013.22 1013.43 1013.71 1014.06 1014.49 1014.99 1015.54 1016.13 1016.73 1017.33 1017.91 1018.47 1019.01 1019.51 1019.99 1020.45 1020.90 1021.32 1021.73 1022.11
Thickness
5828 5822 5817 5824 5828 5828 5824 5819 5817 5822 5833 5828 5822 5821 5825 5829 5827 5824 5823 5821 5819 5818 5821 5820 5818 5816 5812 5809 5805 5803 5800 5799 5797 5796 5794 5792 5791 5790 5790 5789 5786 5785 5784 5783
5815 5814 5826 5831 5829 5824 5822 5817 5818 5823 5831 5826 5821 5821 5829 5829 5826 5826 5824 5822 5821 5820 5820 5818 5817 5816 5813 5809 5806 5804 5801 5800 5798 5797 5795 5793 5792 5791 5790 5789 5786 5784 5783 5782
5810 5821 5829 5823 5819 5816 5818 5817 5817 5817 5824 5829 5821 5816 5822 5828 5830 5829 5828 5828 5826 5823 5821 5819 5817 5816 5814 5811 5808 5807 5804 5801 5799 5798 5797 5794 5791 5790 5789 5786 5785 5784 5783 5782
5814 5824 5821 5818 5817 5818 5812 5825 5823 5819 5815 5816 5817 5803 5816 5823 5821 5823 5826 5827 5828 5828 5826 5823 5820 5817 5816 5814 5813 5809 5805 5802 5800 5798 5796 5793 5789 5786 5785 5785 5785 5784 5783 5782
5810 5817 5815 5812 5819 5820 5819 5826 5823 5820 5815 5813 5816 5808 5816 5822 5815 5820 5824 5826 5829 5830 5828 5825 5823 5820 5819 5817 5814 5811 5806 5802 5800 5798 5795 5792 5790 5788 5788 5786 5783 5782 5783 5782
5817 5824 5822 5821 5826 5825 5823 5819 5817 5817 5815 5796 5808 5804 5806 5819 5817 5820 5823 5825 5827 5829 5828 5826 5825 5821 5819 5817 5815 5811 5805 5801 5800 5797 5795 5791 5788 5787 5785 5783 5782 5782 5783 5782
5801 5811 5821 5825 5814 5817 5816 5804 5791 5788 5791 5796 5812 5804 5806 5821 5826 5824 5822 5823 5825 5826 5825 5823 5821 5819 5816 5815 5813 5810 5804 5800 5798 5796 5794 5791 5788 5786 5783 5782 5781 5781 5782 5781
5789 5791 5810 5817 5813 5808 5810 5808 5787 5776 5783 5798 5805 5800 5812 5825 5828 5828 5827 5825 5824 5823 5822 5821 5819 5818 5815 5813 5811 5809 5804 5800 5798 5794 5792 5790 5788 5787 5786 5783 5783 5781 5781 5781
5794 5793 5813 5817 5820 5815 5805 5806 5815 5802 5797 5790 5799 5806 5814 5821 5820 5821 5821 5820 5818 5819 5819 5818 5817 5817 5815 5812 5809 5807 5803 5799 5796 5794 5790 5787 5786 5785 5784 5782 5780 5780 5778 5779
5803 5789 5802 5810 5813 5811 5813 5812 5804 5796 5776 5775 5789 5796 5802 5805 5808 5813 5813 5813 5814 5816 5816 5816 5815 5815 5814 5811 5808 5805 5802 5797 5795 5792 5789 5787 5784 5782 5781 5779 5776 5775 5774 5774
5804 5788 5791 5797 5793 5796 5797 5798 5797 5798 5796 5780 5777 5792 5812 5808 5809 5809 5810 5811 5811 5810 5811 5811 5811 5812 5811 5809 5806 5801 5798 5795 5792 5790 5787 5785 5782 5780 5778 5776 5775 5773 5771 5769
5798 5794 5785 5791 5804 5809 5805 5800 5797 5782 5779 5787 5784 5789 5813 5811 5812 5809 5807 5806 5806 5806 5806 5806 5806 5806 5805 5803 5801 5797 5795 5792 5790 5788 5785 5782 5779 5778 5775 5774 5772 5770 5768 5767
5791 5785 5769 5773 5783 5793 5794 5798 5802 5802 5794 5785 5780 5787 5805 5806 5806 5805 5802 5800 5799 5798 5799 5798 5798 5797 5796 5795 5794 5792 5791 5789 5788 5785 5782 5778 5776 5774 5772 5770 5769 5768 5765 5764
5789 5783 5777 5772 5782 5790 5785 5789 5794 5794 5784 5782 5785 5789 5795 5796 5795 5795 5795 5795 5794 5791 5790 5790 5789 5789 5788 5787 5786 5785 5785 5784 5783 5780 5777 5774 5772 5771 5769 5767 5765 5764 5762 5760
5783 5774 5777 5783 5789 5790 5786 5785 5787 5786 5789 5784 5787 5789 5791 5793 5792 5790 5790 5788 5786 5784 5783 5783 5782 5781 5781 5779 5778 5778 5778 5778 5777 5774 5772 5769 5767 5766 5764 5762 5761 5759 5758 5757
5773 5767 5768 5768 5778 5779 5776 5781 5783 5782 5784 5784 5785 5784 5792 5791 5789 5784 5783 5781 5778 5777 5778 5777 5777 5775 5774 5773 5773 5772 5772 5771 5770 5767 5766 5764 5762 5760 5759 5757 5756 5754 5753 5751
5765 5760 5755 5758 5768 5766 5761 5774 5777 5778 5782 5782 5777 5781 5783 5778 5776 5775 5775 5774 5773 5772 5772 5771 5771 5770 5769 5768 5768 5766 5766 5766 5763 5761 5759 5758 5756 5754 5753 5753 5750 5748 5746 5744
5754 5752 5753 5755 5749 5736 5765 5780 5780 5775 5776 5780 5778 5777 5775 5772 5771 5772 5772 5769 5767 5766 5765 5765 5765 5765 5765 5764 5764 5762 5761 5759 5756 5754 5752 5751 5749 5747 5746 5744 5742 5741 5740 5738
5753 5746 5747 5747 5742 5747 5757 5767 5769 5763 5761 5773 5771 5769 5768 5768 5765 5762 5764 5764 5761 5760 5759 5758 5759 5759 5758 5757 5757 5754 5752 5750 5748 5746 5744 5743 5742 5740 5738 5736 5734 5733 5731 5730
5743 5742 5740 5737 5731 5731 5750 5761 5766 5760 5748 5763 5764 5760 5759 5757 5751 5752 5754 5755 5754 5752 5751 5750 5750 5749 5748 5748 5749 5745 5743 5741 5739 5738 5736 5735 5733 5731 5730 5728 5726 5725 5724 5722
5727 5726 5729 5729 5727 5740 5744 5753 5753 5735 5740 5753 5756 5753 5751 5747 5747 5747 5747 5744 5743 5742 5741 5740 5739 5738 5737 5738 5738 5735 5734 5732 5732 5731 5728 5726 5724 5723 5722 5720 5718 5716 5715 5715
5722 5722 5719 5724 5719 5724 5736 5742 5736 5734 5742 5745 5745 5744 5741 5739 5738 5737 5735 5733 5732 5731 5730 5730 5728 5727 5728 5728 5728 5726 5724 5725 5724 5722 5720 5717 5716 5715 5715 5711 5709 5708 5707 5706
5718 5719 5724 5720 5719 5722 5730 5730 5731 5734 5733 5735 5735 5735 5732 5729 5727 5726 5724 5723 5722 5721 5720 5719 5718 5717 5717 5718 5717 5716 5715 5715 5713 5711 5709 5708 5707 5706 5705 5703 5701 5700 5699 5699
5709 5710 5711 5708 5713 5716 5719 5722 5724 5726 5725 5727 5727 5725 5723 5719 5718 5716 5715 5713 5712 5711 5710 5709 5708 5707 5707 5707 5707 5707 5706 5706 5704 5702 5700 5699 5698 5698 5696 5695 5696 5694 5693 5691
5701 5701 5701 5698 5703 5707 5709 5712 5714 5715 5715 5715 5715 5715 5713 5711 5709 5707 5705 5704 5703 5702 5701 5700 5699 5697 5697 5697 5697 5698 5697 5696 5695 5693 5692 5692 5692 5691 5688 5688 5686 5686 5685 5683
5697 5694 5693 5693 5697 5698 5699 5704 5706 5704 5703 5704 5703 5703 5703 5702 5699 5698 5696 5695 5693 5692 5691 5690 5689 5688 5688 5687 5687 5687 5687 5686 5685 5685 5684 5685 5684 5683 5682 5680 5678 5674 5673 5669